EW4423 Weather Reports


Display with metric or nautical units.
time (UTC)temp
F
wind
direction
speed
MPH
gust
MPH
rain 1hr
in
rain 24hr
in
rain mn
in
humidity
%
barometer
mb
20260906180008 98 205 4.0 11.0 0.00 0.00 0.00 47 1015.9
20260906174511 95 186 2.0 10.0 0.00 0.00 0.00 51 1016.3
20260906173005 95 180 5.0 10.0 0.00 0.00 0.00 51 1016.4
20260906171504 95 90 4.0 9.0 0.00 0.00 0.00 51 1016.4
20260906170003 93 133 3.0 10.0 0.00 0.00 0.00 52 1016.5
20260906164511 93 183 5.0 9.0 0.00 0.00 0.00 53 1016.6
20260906163020 93 133 1.0 12.0 0.00 0.00 0.00 52 1016.5
20260906161504 91 190 1.0 7.0 0.00 0.00 0.00 57 1016.7
20260906160016 91 189 2.0 7.0 0.00 0.00 0.00 58 1016.6
20260906154529 91 133 1.0 8.0 0.00 0.00 0.00 56 1016.7
20260906153008 89 150 3.0 7.0 0.00 0.00 0.00 60 1016.8
20260906151518 88 105 1.0 5.0 0.00 0.00 0.00 62 1016.8
20260906150012 86 118 0.0 2.0 0.00 0.00 0.00 66 1016.9
20260906144508 85 53 0.0 0.0 0.00 0.00 0.00 73 1016.8
20260906143015 83 111 0.0 0.0 0.00 0.00 0.00 76 1016.8
20260906141507 82 156 0.0 0.0 0.00 0.00 0.00 80 1016.7
20260906140043 81 156 0.0 0.0 0.00 0.00 0.00 82 1016.6
20260906134525 80 157 0.0 0.0 0.00 0.00 0.00 84 1016.7
20260906133010 78 157 0.0 0.0 0.00 0.00 0.00 87 1016.7
20260906131532 77 158 0.0 0.0 0.00 0.00 0.00 1016.6
20260906130010 76 162 0.0 0.0 0.00 0.00 0.00 91 1016.5
20260906124516 74 162 0.0 2.0 0.00 0.00 0.00 91 1016.5
20260906123030 73 162 2.0 2.0 0.00 0.00 0.00 92 1016.2
20260906121508 73 179 0.0 2.0 0.00 0.00 0.00 92 1016.0
20260906120012 73 179 0.0 1.0 0.00 0.00 0.00 92 1015.9
20260906114523 73 179 1.0 2.0 0.00 0.00 0.00 92 1015.8
20260906113017 73 179 0.0 0.0 0.00 0.00 0.00 92 1015.7
20260906111529 73 179 0.0 0.0 0.00 0.00 0.00 93 1015.7
20260906110007 73 179 0.0 0.0 0.00 0.00 0.00 92 1015.6
20260906104518 73 179 0.0 0.0 0.00 0.00 0.00 93 1015.5
20260906103033 73 179 0.0 0.0 0.00 0.00 0.00 92 1015.5
20260906101516 74 179 0.0 1.0 0.00 0.00 0.00 91 1015.4
20260906100033 74 179 0.0 2.0 0.00 0.00 0.00 93 1015.3
20260906094513 73 179 2.0 4.0 0.00 0.00 0.00 92 1015.3
20260906093039 73 194 3.0 4.0 0.00 0.00 0.00 92 1015.2
20260906091503 74 197 1.0 3.0 0.00 0.00 0.00 91 1015.2
20260906090019 74 221 0.0 0.0 0.00 0.00 0.00 91 1015.2
20260906084511 74 222 0.0 1.0 0.00 0.00 0.00 91 1015.3
20260906083017 74 222 1.0 3.0 0.00 0.00 0.00 92 1015.1
20260906081519 74 222 1.0 3.0 0.00 0.00 0.00 92 1015.0
20260906080028 74 226 2.0 5.0 0.00 0.00 0.00 92 1014.9
20260906074509 74 199 3.0 4.0 0.00 0.00 0.00 92 1014.9
20260906073011 73 162 2.0 3.0 0.00 0.00 0.00 91 1014.7
20260906071505 74 161 0.0 0.0 0.00 0.00 0.00 91 1015.0
20260906070018 74 161 0.0 0.0 0.00 0.00 0.00 91 1015.0
20260906064526 74 161 0.0 0.0 0.00 0.00 0.00 90 1015.0
20260906063008 74 161 0.0 0.0 0.00 0.00 0.00 91 1015.0
20260906061512 74 160 3.0 3.0 0.00 0.00 0.00 90 1015.0
20260906060018 74 160 0.0 0.0 0.00 0.00 0.00 90 1014.9
20260906054516 74 160 0.0 0.0 0.00 0.00 0.00 90 1015.0
20260906053030 75 160 0.0 0.0 0.00 0.00 0.00 89 1015.0
20260906051507 75 160 0.0 2.0 0.00 0.00 0.00 89 1014.7
20260906050016 75 160 1.0 3.0 0.00 0.00 0.00 89 1014.9
20260906044529 75 160 1.0 2.0 0.00 0.00 0.00 88 1014.7
20260906043017 75 160 0.0 0.0 0.00 0.00 0.00 89 1014.8
20260906041542 76 160 0.0 0.0 0.00 0.00 0.00 87 1014.7
20260906040013 76 160 0.0 0.0 0.00 0.00 0.00 87 1014.6
20260906034518 76 160 0.0 2.0 0.00 0.00 0.00 87 1014.6
20260906033026 77 160 2.0 4.0 0.00 0.00 0.00 87 1014.8
20260906031515 77 155 1.0 3.0 0.00 0.00 0.00 86 1015.0
20260906030034 78 144 3.0 5.0 0.00 0.00 0.00 85 1015.1
20260906024534 78 158 3.0 6.0 0.00 0.00 0.00 84 1015.0
20260906023021 78 151 5.0 8.0 0.00 0.00 0.00 83 1015.3
20260906021530 79 171 3.0 6.0 0.00 0.00 0.00 83 1014.7
20260906020034 79 165 3.0 5.0 0.00 0.00 0.00 83 1014.7
20260906014539 79 169 3.0 13.0 0.00 0.00 0.00 84 1014.9
20260906013032 80 183 6.0 9.0 0.00 0.00 0.00 82 1014.7
20260906011518 80 152 4.0 5.0 0.00 0.00 0.00 80 1014.3
20260906010054 80 158 1.0 4.0 0.00 0.00 0.00 79 1014.2
20260906004528 80 165 3.0 5.0 0.00 0.00 0.00 79 1013.9
20260906003024 81 173 3.0 6.0 0.00 0.00 0.00 79 1013.9
20260906001520 81 177 3.0 7.0 0.00 0.00 0.00 78 1014.1
20260906000032 81 172 2.0 4.0 0.00 0.00 0.00 77 1014.2
20260905234526 83 202 7.0 10.0 0.00 0.00 0.00 75 1014.1
20260905233031 83 190 7.0 9.0 0.00 0.00 0.00 72 1014.2
20260905231536 83 186 4.0 13.0 0.00 0.00 0.00 71 1014.2
20260905230037 84 206 9.0 15.0 0.00 0.00 0.00 69 1014.0
20260905224535 85 192 8.0 12.0 0.00 0.00 0.00 64 1013.9
20260905223035 86 205 5.0 11.0 0.00 0.00 0.00 59 1013.8
20260905221535 86 106 0.0 3.0 0.00 0.00 0.00 60 1013.7
20260905220036 84 259 0.0 6.0 0.00 0.00 0.00 62 1013.6
20260905214523 84 181 3.0 11.0 0.00 0.00 0.00 63 1013.3
20260905213029 85 149 10.0 16.0 0.00 0.00 0.00 65 1013.2
20260905211536 90 140 10.0 27.0 0.00 0.00 0.00 56 1013.2
20260905210036 97 175 5.0 13.0 0.00 0.00 0.00 45 1013.0
20260905204523 100 200 6.0 9.0 0.00 0.00 0.00 43 1013.1
20260905203034 96 112 3.0 5.0 0.00 0.00 0.00 46 1013.4
20260905201505 96 92 2.0 6.0 0.00 0.00 0.00 46 1013.7
20260905200017 98 141 4.0 9.0 0.00 0.00 0.00 44 1013.8
20260905194504 98 110 3.0 6.0 0.00 0.00 0.00 42 1013.9
20260905193021 100 270 3.0 12.0 0.00 0.00 0.00 44 1014.2
20260905191525 99 270 6.0 9.0 0.00 0.00 0.00 45 1014.5
20260905190005 97 290 4.0 9.0 0.00 0.00 0.00 47 1014.8
20260905184510 95 330 2.0 8.0 0.00 0.00 0.00 48 1015.0
20260905183019 98 285 5.0 9.0 0.00 0.00 0.00 44 1015.2
20260905181515 95 165 2.0 4.0 0.00 0.00 0.00 47 1015.5